Wetbulb
69.22 71.74 74.77 74.81 74.15 73.87 73.72 72.49 72.42 71.72 73.06 73.08 73.92 74.37 74.22 73.89 73.57 73.18 72.65 71.80 70.95 70.67 70.89 71.39 71.99 72.31 71.85 71.28 71.00 70.49 71.17 71.92 71.62 71.22 71.14 70.87 70.66 71.21 71.38 70.79 70.31 67.60 68.93
70.59 72.33 74.51 74.73 74.57 73.94 73.59 72.15 72.81 72.65 73.03 73.16 73.73 73.92 73.93 73.78 73.50 73.02 72.44 71.45 71.02 71.04 70.56 71.35 71.62 71.55 71.11 71.09 70.94 71.01 71.72 70.87 70.00 69.71 69.22 68.86 69.62 69.97 69.83 69.66 71.20 67.93 70.33
71.22 72.33 72.80 74.29 74.24 74.08 73.41 72.00 72.43 72.97 72.35 72.65 73.21 73.82 73.55 73.59 73.51 72.50 71.70 71.08 71.04 71.07 71.05 71.70 71.07 70.88 71.22 70.75 70.83 70.94 70.96 69.78 69.06 68.32 67.32 63.45 64.43 68.40 68.66 68.36 68.60 69.38 69.81
71.62 72.13 72.05 73.94 73.98 73.53 73.08 71.58 72.40 72.45 70.96 71.26 72.72 72.94 73.34 73.38 73.00 71.85 71.20 70.67 70.90 70.97 71.17 71.15 70.78 70.49 70.59 71.38 71.15 70.85 70.17 68.84 67.46 66.04 62.43 62.35 63.55 67.28 67.67 68.01 68.04 68.24 68.37
71.40 71.95 72.15 73.76 73.60 73.37 72.42 71.20 72.40 72.44 70.94 70.33 71.75 72.84 72.94 73.07 72.30 71.64 70.67 70.37 70.37 70.44 70.73 70.89 70.48 70.22 70.84 71.25 70.98 70.23 69.23 67.75 66.36 63.87 61.81 61.32 61.63 66.16 67.36 67.16 67.24 67.69 67.58
70.97 71.28 72.74 73.41 73.05 73.08 72.33 71.73 72.48 71.88 70.84 69.73 70.21 71.59 72.54 72.32 71.13 70.67 70.05 69.92 70.17 70.34 70.26 70.16 69.78 69.84 70.02 70.74 70.35 69.82 68.69 66.97 64.96 62.20 62.29 63.93 62.31 66.93 66.67 66.56 66.87 67.14 67.33
70.84 71.15 71.43 72.85 72.93 72.40 71.58 71.62 72.39 71.81 70.55 69.68 69.83 70.19 70.79 71.24 70.25 69.93 69.58 69.57 69.64 69.63 69.60 69.51 69.27 69.20 69.29 69.19 69.33 69.36 67.44 65.56 61.97 61.52 61.63 62.13 63.37 67.28 66.94 66.28 66.07 66.03 66.92
70.24 70.68 70.82 71.79 72.40 72.12 71.45 71.69 72.29 72.55 70.76 69.68 70.26 69.86 70.37 69.82 69.52 69.37 69.27 69.31 69.39 69.35 69.12 68.99 68.79 68.30 68.16 68.25 68.01 67.90 67.04 65.24 62.55 61.63 61.96 62.46 67.27 67.11 66.60 66.06 65.65 65.49 65.69
70.32 69.90 69.81 70.48 70.84 71.18 71.44 71.71 71.94 72.53 71.89 70.71 70.33 70.45 70.34 69.56 68.86 68.94 68.95 69.21 69.28 69.20 69.09 68.71 68.07 67.47 66.97 66.69 66.63 66.39 65.82 64.98 60.61 61.56 63.37 63.11 67.69 66.65 66.20 65.60 65.45 65.21 64.76
69.34 69.49 69.66 69.44 68.78 68.13 68.42 70.67 70.86 71.35 71.39 70.69 69.79 69.27 68.46 68.27 68.49 68.55 67.91 69.28 69.27 68.93 68.55 68.07 67.62 66.97 66.22 65.56 65.37 65.12 64.32 63.18 59.24 61.14 61.73 62.53 67.10 66.25 65.72 65.24 64.87 64.62 64.17
67.44 68.47 68.47 67.29 66.57 66.24 67.05 68.80 69.96 70.54 70.48 69.87 68.76 67.12 66.29 64.99 65.84 66.42 66.66 68.00 69.06 68.63 68.03 67.49 66.93 66.26 65.60 63.74 64.27 64.46 61.55 57.10 56.49 58.34 61.10 64.39 67.86 66.41 65.71 64.85 64.28 63.89 63.49
66.70 66.88 67.47 66.49 65.83 65.82 68.46 66.53 66.61 68.93 69.80 69.38 66.97 65.33 64.40 63.88 64.29 65.62 65.10 67.00 68.50 68.41 68.21 67.25 66.90 66.89 63.76 58.81 58.06 60.08 57.11 56.16 55.86 56.76 60.71 64.89 67.79 67.38 66.70 65.78 64.66 63.81 63.07
67.34 67.91 67.09 66.27 65.68 65.22 66.12 65.42 65.25 66.01 67.05 68.31 67.07 65.13 64.24 64.04 63.20 62.68 62.32 63.59 63.19 64.38 63.11 64.02 62.63 61.99 59.84 58.96 58.68 57.77 57.50 56.52 55.53 55.31 58.92 64.73 66.91 67.91 67.14 67.83 66.85 65.50 64.43
65.88 66.59 66.62 66.54 65.66 64.56 65.10 65.41 65.30 65.61 65.48 66.47 66.26 64.78 63.04 62.42 62.17 61.88 61.61 61.49 61.08 61.46 60.26 59.59 59.94 59.71 59.77 59.91 58.88 59.33 58.17 57.19 55.86 55.18 55.93 61.02 65.39 67.54 67.54 67.22 67.96 68.05 66.94
65.50 66.17 66.58 66.54 65.93 65.43 62.86 63.45 64.75 64.31 64.20 64.61 64.62 64.27 63.30 62.18 61.96 62.14 62.01 61.23 60.74 60.32 60.09 58.87 58.68 59.25 59.27 59.80 60.43 60.40 59.67 58.50 57.87 56.94 55.94 59.25 61.42 66.08 67.28 67.44 67.53 67.80 68.88
65.05 65.40 66.80 66.56 66.30 65.90 64.11 62.62 61.72 62.87 63.50 63.82 63.44 63.73 63.41 62.68 62.38 62.37 61.90 61.32 60.41 60.24 60.14 60.05 59.24 59.37 59.42 58.45 58.29 59.42 59.30 58.99 58.73 58.39 58.49 58.34 61.17 62.81 65.35 67.07 67.52 67.95 68.28
64.24 63.39 63.35 65.56 66.36 65.86 65.55 64.87 62.57 61.61 62.93 63.45 62.99 62.96 63.14 62.25 61.48 61.63 61.62 60.95 60.70 60.25 60.01 60.07 59.34 57.05 56.97 57.95 58.98 60.19 60.57 60.53 60.55 60.45 60.69 60.67 60.97 61.75 63.30 65.79 67.18 67.71 68.14
61.10 61.88 64.24 64.64 64.74 64.12 65.74 65.70 65.20 64.58 62.56 61.37 61.40 62.24 62.77 63.05 60.93 60.43 60.52 59.85 59.17 59.58 59.45 58.08 57.33 55.80 56.63 58.27 59.21 60.32 60.87 61.24 61.85 62.48 62.83 62.61 61.49 61.93 62.45 64.47 65.92 67.11 67.98
61.28 62.25 64.42 65.27 65.34 65.37 66.17 66.56 65.98 65.76 65.25 64.49 62.87 60.62 60.95 62.33 60.98 60.04 59.67 58.76 58.01 58.08 57.14 56.80 56.65 57.77 58.49 59.63 61.29 62.48 62.65 63.03 63.23 63.32 62.41 61.66 61.31 61.20 60.97 62.15 62.54 63.59 65.14
64.27 64.30 65.30 65.51 65.94 66.05 66.57 66.18 64.71 65.66 65.61 65.78 64.63 63.27 62.23 62.23 61.81 60.46 59.92 59.46 59.91 60.17 59.62 59.27 58.39 59.27 60.13 61.88 62.75 62.80 61.95 62.11 61.85 60.16 59.88 60.26 59.82 60.29 60.53 60.54 59.96 59.88 62.30
64.74 64.81 64.89 64.86 65.32 65.67 64.92 64.34 63.01 61.64 64.44 65.15 64.37 65.09 64.75 64.40 63.83 62.77 61.67 61.37 60.57 60.59 61.15 61.49 61.72 61.56 62.43 62.91 61.75 59.72 59.13 59.53 58.71 58.18 57.52 56.95 57.16 58.16 58.82 59.00 58.65 58.44 59.89
63.53 64.37 64.31 64.67 64.87 64.79 65.16 64.79 64.23 64.29 64.82 65.15 65.14 65.09 64.69 64.83 64.60 63.89 63.47 62.77 61.65 61.81 61.51 62.01 63.08 62.80 62.85 62.33 59.45 57.84 54.65 55.04 55.14 55.83 55.44 55.17 54.36 55.45 56.65 56.71 56.56 56.16 56.66
60.93 62.49 64.13 64.80 64.31 63.94 65.21 64.72 63.51 63.56 63.53 63.54 64.15 64.18 64.75 64.86 64.58 64.47 63.85 64.00 63.44 63.36 62.43 62.93 62.77 62.79 61.21 60.67 61.46 59.02 54.48 50.58 51.85 55.88 54.99 55.15 53.82 53.45 53.25 53.55 53.93 54.79 54.59
54.40 60.74 62.37 62.35 63.38 64.62 64.70 63.88 63.49 62.35 61.87 63.61 63.52 63.41 63.40 62.64 63.19 63.56 64.16 63.89 63.67 63.20 62.88 62.71 62.08 61.20 60.46 58.55 56.50 56.71 55.81 56.70 54.89 50.51 52.92 54.06 53.35 52.94 51.90 52.18 52.08 51.52 51.37
49.93 52.86 59.59 60.94 61.73 62.85 62.37 62.92 62.51 61.49 62.28 61.63 61.38 62.08 61.97 61.39 61.54 61.78 61.48 61.85 62.58 61.00 58.85 58.88 58.22 57.97 58.15 57.43 56.14 54.15 53.19 50.79 51.47 53.13 48.09 49.29 51.53 51.46 51.03 50.87 50.08 49.03 50.25
47.70 48.91 52.32 56.58 58.29 60.09 60.79 61.22 61.28 61.28 60.29 59.28 59.51 59.52 58.60 58.04 58.15 59.33 59.23 57.93 57.64 57.40 57.39 57.38 56.23 54.97 53.59 52.15 51.71 51.34 51.07 49.65 47.64 47.17 49.03 48.70 47.60 49.27 48.36 48.23 47.35 47.06 47.94
MSLP
1012.06 1012.13 1012.52 1012.90 1013.38 1013.81 1014.09 1014.41 1014.55 1014.76 1014.84 1014.89 1014.98 1015.18 1015.47 1015.80 1016.08 1016.38 1016.69 1016.95 1017.19 1017.34 1017.40 1017.44 1017.64 1017.74 1017.90 1018.10 1018.23 1018.40 1018.43 1018.38 1018.52 1018.57 1018.64 1018.65 1018.55 1018.51 1018.54 1018.47 1018.37 1018.43 1018.40
1011.63 1012.00 1012.52 1012.92 1013.39 1013.85 1014.19 1014.53 1014.85 1015.07 1015.19 1015.18 1015.17 1015.35 1015.63 1015.94 1016.21 1016.55 1016.86 1017.16 1017.35 1017.46 1017.64 1017.70 1017.90 1018.02 1018.23 1018.45 1018.56 1018.67 1018.68 1018.80 1018.89 1018.99 1018.98 1019.00 1018.83 1018.79 1018.81 1018.71 1018.59 1018.49 1018.57
1011.67 1012.04 1012.58 1013.02 1013.49 1013.94 1014.37 1014.75 1015.09 1015.32 1015.51 1015.56 1015.45 1015.61 1015.90 1016.17 1016.39 1016.72 1017.04 1017.38 1017.58 1017.73 1017.83 1017.91 1018.12 1018.28 1018.59 1018.68 1018.80 1018.87 1018.99 1019.12 1019.20 1019.32 1019.37 1019.45 1019.40 1019.23 1019.20 1019.24 1019.14 1018.75 1018.66
1011.73 1012.18 1012.66 1013.15 1013.61 1014.03 1014.49 1014.93 1015.21 1015.52 1015.80 1015.91 1015.91 1015.96 1016.15 1016.41 1016.62 1017.03 1017.35 1017.60 1017.83 1018.04 1018.17 1018.27 1018.44 1018.69 1018.75 1018.77 1018.91 1019.06 1019.23 1019.41 1019.52 1019.65 1019.81 1019.82 1019.67 1019.55 1019.56 1019.48 1019.43 1019.42 1019.17
1012.00 1012.37 1012.80 1013.23 1013.71 1014.13 1014.61 1015.02 1015.36 1015.60 1016.03 1016.25 1016.28 1016.32 1016.47 1016.65 1016.94 1017.31 1017.65 1017.87 1018.10 1018.42 1018.60 1018.76 1018.93 1019.00 1019.01 1019.02 1019.15 1019.35 1019.52 1019.72 1019.89 1020.01 1020.10 1020.10 1020.02 1019.80 1019.81 1019.88 1019.82 1019.69 1019.61
1012.24 1012.58 1012.97 1013.39 1013.83 1014.27 1014.73 1015.12 1015.48 1015.78 1016.27 1016.53 1016.65 1016.71 1016.76 1017.00 1017.34 1017.60 1017.97 1018.18 1018.40 1018.64 1018.81 1019.03 1019.19 1019.30 1019.38 1019.41 1019.52 1019.66 1019.86 1020.02 1020.18 1020.31 1020.28 1020.15 1020.13 1019.95 1019.98 1020.02 1020.02 1019.97 1019.93
1012.52 1012.77 1013.18 1013.52 1013.99 1014.46 1014.85 1015.21 1015.54 1015.95 1016.39 1016.72 1016.88 1017.02 1017.14 1017.32 1017.72 1018.06 1018.38 1018.56 1018.69 1018.87 1019.06 1019.29 1019.47 1019.62 1019.68 1019.77 1019.84 1019.96 1020.14 1020.30 1020.41 1020.55 1020.55 1020.43 1020.25 1020.13 1020.19 1020.27 1020.29 1020.27 1020.27
1012.61 1013.00 1013.37 1013.69 1014.14 1014.58 1014.98 1015.36 1015.72 1016.02 1016.51 1016.80 1017.06 1017.16 1017.38 1017.65 1018.05 1018.47 1018.75 1018.93 1019.08 1019.22 1019.41 1019.57 1019.71 1019.90 1019.96 1020.01 1020.09 1020.17 1020.32 1020.48 1020.64 1020.74 1020.74 1020.63 1020.40 1020.37 1020.41 1020.46 1020.47 1020.51 1020.51
1012.60 1013.19 1013.57 1013.97 1014.38 1014.72 1015.13 1015.51 1015.94 1016.20 1016.58 1016.90 1017.30 1017.51 1017.68 1017.93 1018.33 1018.74 1018.97 1019.14 1019.30 1019.47 1019.66 1019.83 1019.93 1020.07 1020.18 1020.26 1020.31 1020.37 1020.42 1020.52 1020.77 1020.90 1020.88 1020.86 1020.55 1020.49 1020.57 1020.62 1020.64 1020.71 1020.72
1013.07 1013.44 1013.69 1014.13 1014.55 1015.02 1015.34 1015.68 1016.06 1016.50 1016.78 1017.12 1017.55 1017.85 1018.04 1018.29 1018.55 1018.84 1019.16 1019.29 1019.43 1019.61 1019.76 1019.90 1020.01 1020.12 1020.27 1020.37 1020.48 1020.57 1020.62 1020.74 1020.82 1020.88 1020.90 1020.92 1020.66 1020.60 1020.67 1020.72 1020.74 1020.76 1020.81
1013.45 1013.71 1013.72 1014.18 1014.75 1015.25 1015.55 1015.85 1016.22 1016.50 1016.94 1017.24 1017.82 1018.21 1018.48 1018.71 1018.88 1019.08 1019.37 1019.48 1019.59 1019.73 1019.95 1020.10 1020.20 1020.25 1020.32 1020.42 1020.50 1020.56 1020.60 1020.80 1020.90 1020.91 1020.94 1020.86 1020.70 1020.58 1020.65 1020.72 1020.73 1020.81 1020.84
1013.86 1013.93 1013.94 1014.19 1014.69 1015.15 1015.54 1016.06 1016.45 1016.77 1017.10 1017.38 1017.99 1018.47 1018.78 1018.99 1019.16 1019.32 1019.46 1019.58 1019.75 1019.87 1020.04 1020.19 1020.33 1020.42 1020.51 1020.70 1020.74 1020.74 1020.88 1020.86 1020.90 1020.88 1020.85 1020.81 1020.73 1020.54 1020.60 1020.71 1020.74 1020.82 1020.86
1013.72 1013.90 1014.10 1014.27 1014.86 1015.20 1015.53 1016.00 1016.54 1017.01 1017.34 1017.58 1018.00 1018.55 1018.88 1019.15 1019.32 1019.54 1019.71 1019.80 1019.92 1020.03 1020.18 1020.34 1020.52 1020.67 1020.78 1020.81 1020.85 1020.88 1020.87 1020.91 1021.00 1020.89 1020.74 1020.69 1020.69 1020.52 1020.42 1020.55 1020.66 1020.73 1020.74
1013.22 1013.77 1013.73 1014.00 1014.57 1015.23 1015.81 1015.96 1016.42 1017.03 1017.47 1017.77 1018.04 1018.54 1018.91 1019.22 1019.46 1019.61 1019.75 1019.94 1020.09 1020.19 1020.39 1020.52 1020.75 1020.78 1020.84 1020.81 1020.82 1020.85 1020.85 1020.87 1020.87 1020.79 1020.66 1020.59 1020.57 1020.47 1020.32 1020.28 1020.33 1020.54 1020.62
1012.40 1012.94 1013.19 1013.49 1013.74 1014.90 1015.82 1016.30 1016.31 1016.90 1017.39 1017.79 1018.15 1018.46 1018.76 1019.00 1019.24 1019.42 1019.58 1019.80 1019.99 1020.14 1020.41 1020.57 1020.67 1020.81 1020.86 1020.85 1020.75 1020.67 1020.56 1020.52 1020.53 1020.55 1020.50 1020.42 1020.43 1020.38 1020.23 1020.09 1020.04 1020.00 1020.10
1012.67 1013.04 1013.63 1013.89 1012.99 1013.58 1015.51 1016.12 1016.58 1016.64 1017.01 1017.65 1018.09 1018.32 1018.58 1018.76 1019.05 1019.26 1019.39 1019.57 1019.73 1019.91 1020.10 1020.22 1020.40 1020.54 1020.68 1020.72 1020.60 1020.48 1020.34 1020.26 1020.21 1020.19 1020.16 1020.11 1020.05 1020.06 1020.04 1019.86 1019.71 1019.77 1019.66
1012.53 1013.40 1014.16 1013.75 1013.07 1013.06 1014.20 1015.35 1015.74 1016.12 1016.79 1017.29 1017.49 1017.95 1018.28 1018.56 1018.92 1019.18 1019.29 1019.40 1019.35 1019.54 1019.86 1020.15 1020.23 1020.34 1020.48 1020.47 1020.44 1020.21 1020.19 1020.15 1020.05 1019.95 1019.84 1019.76 1019.65 1019.60 1019.61 1019.59 1019.44 1019.38 1019.47
1012.85 1013.31 1013.87 1012.58 1012.00 1012.69 1012.89 1014.34 1015.05 1015.45 1016.26 1016.74 1017.09 1017.08 1017.56 1017.86 1018.23 1018.80 1019.08 1019.16 1019.11 1019.31 1019.54 1019.88 1020.23 1020.28 1020.28 1020.27 1020.15 1019.98 1019.81 1019.77 1019.59 1019.43 1019.34 1019.34 1019.39 1019.34 1019.30 1019.11 1019.14 1019.12 1019.16
1012.15 1012.78 1013.39 1012.91 1012.48 1012.57 1013.10 1014.50 1014.98 1014.90 1015.29 1015.76 1016.22 1016.62 1017.05 1017.28 1017.74 1018.35 1018.51 1018.51 1018.85 1019.16 1019.42 1019.50 1019.82 1019.90 1019.97 1019.88 1019.85 1019.63 1019.41 1019.22 1018.98 1018.96 1018.99 1019.01 1019.05 1019.06 1019.10 1018.91 1018.89 1018.98 1018.96
1011.99 1012.50 1012.53 1013.12 1013.19 1013.84 1013.97 1014.54 1014.78 1014.91 1014.85 1015.60 1016.10 1016.13 1016.43 1016.60 1016.95 1017.63 1018.09 1018.26 1018.60 1019.01 1019.19 1019.33 1019.46 1019.69 1019.63 1019.39 1019.25 1019.35 1019.11 1019.07 1018.85 1018.89 1018.89 1018.94 1018.92 1018.69 1018.71 1018.68 1018.65 1018.73 1018.70
1011.87 1012.15 1012.21 1012.78 1013.22 1013.94 1014.38 1015.09 1015.10 1014.83 1015.04 1015.65 1015.78 1015.78 1015.66 1015.83 1016.14 1016.65 1017.24 1017.63 1018.15 1018.67 1018.70 1018.81 1019.18 1019.31 1019.35 1019.08 1019.19 1019.17 1019.08 1018.82 1018.84 1018.88 1018.89 1018.92 1018.84 1018.60 1018.39 1018.59 1018.75 1018.78 1018.76
1011.64 1012.01 1012.29 1012.26 1012.78 1012.81 1013.63 1014.34 1014.52 1014.74 1015.00 1015.30 1015.24 1015.34 1015.31 1015.65 1015.40 1015.94 1016.54 1017.07 1017.48 1018.00 1018.35 1018.53 1018.57 1019.06 1018.91 1018.95 1019.27 1019.48 1019.47 1019.30 1018.96 1018.82 1018.82 1019.00 1019.04 1018.88 1018.63 1018.57 1018.68 1018.88 1019.12
1011.34 1011.55 1011.75 1011.81 1012.19 1012.63 1013.12 1014.08 1014.48 1014.86 1015.23 1015.29 1015.25 1015.25 1015.68 1016.02 1016.14 1016.35 1016.67 1016.80 1017.06 1017.60 1018.10 1018.18 1018.38 1018.63 1018.72 1018.89 1019.03 1019.21 1019.71 1019.87 1019.81 1019.16 1018.91 1019.02 1019.07 1018.97 1018.96 1019.12 1019.09 1019.01 1019.26
1011.10 1011.46 1011.70 1011.90 1012.06 1012.15 1012.71 1013.18 1013.71 1014.38 1014.94 1014.96 1014.99 1014.57 1015.10 1015.26 1015.92 1016.35 1016.56 1016.99 1017.16 1017.54 1018.01 1018.41 1018.62 1018.90 1018.90 1019.07 1019.30 1019.49 1019.64 1020.15 1020.21 1019.93 1019.35 1019.21 1019.38 1019.32 1019.23 1019.29 1019.41 1019.55 1019.51
1011.14 1011.21 1011.55 1011.62 1011.91 1012.10 1012.35 1012.83 1013.33 1013.65 1013.73 1013.80 1014.25 1014.33 1014.95 1014.67 1015.26 1015.91 1016.06 1017.02 1016.80 1017.44 1017.98 1018.42 1018.49 1018.85 1019.04 1019.29 1019.53 1019.80 1020.06 1020.17 1020.28 1020.44 1020.10 1019.71 1019.66 1019.56 1019.63 1019.66 1019.66 1019.87 1019.96
1011.22 1011.35 1011.52 1011.79 1011.99 1012.24 1012.43 1012.80 1013.15 1013.25 1013.58 1013.90 1014.14 1014.37 1014.91 1015.55 1015.99 1015.49 1015.47 1016.14 1017.27 1017.83 1018.27 1018.44 1018.67 1018.91 1019.08 1019.30 1019.71 1020.16 1020.42 1020.39 1020.35 1020.41 1020.44 1020.21 1020.05 1019.89 1019.84 1020.04 1020.05 1020.10 1020.15
Wind_Speed
10 11 19 20 19 17 16 14 14 14 13 14 15 18 20 20 20 19 19 17 17 17 17 18 17 17 17 17 17 16 16 17 17 17 15 14 13 12 14 13 9 9 13
13 13 19 19 18 17 16 15 13 13 11 12 15 17 19 21 21 19 18 18 17 18 18 18 17 17 15 14 14 14 15 15 14 15 13 13 12 13 13 14 13 11 11
14 13 14 18 17 16 16 15 13 13 12 11 13 18 19 19 20 19 18 17 17 17 17 17 16 15 12 11 11 12 12 13 13 13 12 5 6 11 12 12 12 14 14
13 12 11 17 17 17 16 15 13 15 14 11 11 15 18 18 20 18 18 17 16 15 15 16 15 12 10 11 13 13 12 11 12 11 5 5 5 12 11 11 11 12 12
11 10 11 16 18 17 15 15 13 15 13 12 10 11 15 17 18 17 16 16 15 14 14 14 12 11 11 12 13 12 12 11 11 8 6 5 4 9 12 11 10 10 10
10 9 14 17 17 15 14 13 13 16 13 12 11 10 12 13 15 16 15 14 13 13 13 12 11 11 11 10 11 11 11 11 9 6 5 6 4 11 11 11 11 10 9
11 10 11 17 16 15 14 12 13 15 14 13 13 13 13 13 14 14 13 12 12 12 12 11 10 10 10 10 9 9 10 9 5 5 4 4 4 10 10 11 11 10 10
12 10 10 15 15 14 13 11 14 16 15 13 11 14 12 14 14 12 11 10 10 10 10 9 8 8 8 8 9 8 8 7 5 4 3 3 5 8 9 9 10 10 10
12 10 8 9 11 12 10 9 11 14 14 13 10 10 11 11 13 11 10 9 9 8 8 7 7 7 7 7 7 7 6 6 4 2 2 1 2 6 7 7 8 8 9
10 10 10 8 7 6 6 9 8 10 13 13 11 9 9 8 9 10 9 7 7 7 6 5 5 5 5 5 6 5 5 5 2 2 1 1 2 3 4 5 6 6 7
7 11 10 9 7 6 5 5 5 8 12 12 9 9 7 4 5 6 5 5 5 5 3 2 2 2 3 4 3 3 4 1 0 1 1 4 4 1 2 2 3 4 4
6 7 8 9 9 8 5 5 4 3 4 5 6 5 4 4 4 4 5 6 4 4 2 1 1 1 3 2 2 3 1 0 1 1 2 6 6 5 3 3 2 2 2
11 7 8 8 6 6 6 4 3 2 2 3 6 5 4 3 3 2 1 1 1 2 0 1 2 2 2 1 2 2 2 1 1 2 3 7 8 8 6 6 6 5 4
11 13 11 10 9 5 3 4 4 3 3 2 4 5 4 3 3 3 2 3 2 1 2 2 1 2 3 3 2 3 3 2 2 2 4 7 9 10 9 8 8 8 7
14 11 12 14 13 7 4 1 4 4 3 3 4 4 4 4 4 4 4 3 3 3 3 3 3 2 3 3 4 4 4 4 4 3 3 6 8 11 11 11 10 10 10
5 5 11 14 14 14 6 5 3 3 5 4 4 4 5 4 4 4 4 4 4 4 3 4 4 3 3 3 4 4 5 4 4 5 3 4 8 10 12 14 14 12 12
14 10 11 14 12 14 13 7 6 5 5 5 6 6 6 5 5 5 4 4 4 4 5 3 3 2 2 3 5 4 4 5 4 5 4 4 4 8 11 13 15 13 14
8 9 15 8 8 8 11 6 5 6 6 6 5 6 9 8 7 5 4 4 4 4 4 3 3 3 3 4 3 4 4 4 5 5 4 3 4 3 5 11 13 12 14
14 12 9 3 7 7 6 7 8 8 6 5 5 6 7 8 7 6 5 5 5 4 4 4 4 3 3 4 4 4 4 4 4 3 4 5 4 3 4 5 8 8 10
9 7 5 4 5 5 8 8 4 4 3 3 5 5 9 8 10 8 5 5 5 4 4 3 5 4 4 4 3 3 4 4 3 4 4 3 4 5 5 5 3 4 9
8 8 8 7 9 4 3 3 5 6 2 3 5 7 9 8 9 9 6 6 5 5 6 5 3 5 4 3 1 3 3 4 4 3 2 3 4 4 4 3 1 1 1
10 12 11 13 12 10 8 4 2 2 2 1 3 5 5 8 9 9 8 7 7 5 6 5 5 3 2 3 2 0 3 4 3 1 1 2 3 3 3 2 3 4 4
7 9 11 14 13 14 12 4 2 2 3 2 3 4 2 5 4 3 5 4 5 4 4 4 4 6 4 1 1 2 2 3 1 2 0 1 2 2 2 2 3 5 4
8 6 7 6 7 13 12 8 13 9 12 9 7 3 4 3 4 4 2 2 1 1 3 3 3 2 1 3 0 2 1 2 2 4 1 1 2 3 2 2 3 3 4
3 6 6 6 5 4 5 6 7 7 6 2 2 7 4 6 8 6 8 2 3 2 3 4 3 2 1 1 1 1 0 0 3 4 3 4 3 2 3 1 2 2 3
2 3 3 3 3 1 3 4 6 7 5 3 3 3 4 2 2 0 6 6 3 2 3 2 2 2 2 2 2 0 2 2 2 2 3 3 2 2 1 2 2 2 2
Wind_Direction
162 154 153 145 143 141 134 128 131 127 117 114 125 129 127 123 122 117 109 111 112 111 112 108 107 98 92 88 89 88 85 79 71 67 67 78 76 77 72 51 83 72 60
141 147 150 147 146 143 137 132 132 129 123 113 123 132 131 129 124 118 116 117 118 115 115 116 110 104 99 93 93 95 91 80 70 68 59 37 50 64 63 48 53 70 71
140 143 148 147 145 140 135 134 137 140 124 121 113 122 132 128 124 120 119 117 118 118 120 116 113 107 95 98 104 106 97 83 78 73 67 50 51 62 63 64 34 51 47
137 139 143 145 143 137 133 137 143 135 129 126 121 125 127 128 122 122 121 122 120 121 121 119 114 105 100 105 114 108 99 89 85 77 60 48 38 68 65 65 67 60 51
126 129 141 143 139 135 134 140 146 135 129 130 128 129 128 125 120 122 124 125 123 124 123 119 112 103 100 111 110 106 97 90 85 77 72 62 43 67 70 70 63 61 60
119 119 140 141 137 132 134 144 144 133 130 134 135 131 128 129 126 126 128 126 127 130 130 125 115 105 97 100 112 107 98 96 86 74 64 57 58 72 71 70 69 66 59
128 126 134 135 131 133 137 146 149 135 134 137 142 144 141 139 132 131 130 129 130 132 131 127 116 105 100 98 102 112 102 94 90 79 68 56 61 71 69 67 65 64 60
129 126 132 131 130 132 139 142 148 140 138 139 145 147 142 139 139 133 134 128 126 128 128 123 113 101 94 91 90 101 112 102 84 81 62 39 66 70 69 67 64 63 63
119 123 119 120 125 125 130 132 151 150 142 139 141 141 135 139 144 144 139 134 128 123 120 115 108 97 92 93 92 93 107 121 111 107 76 17 3 75 75 71 67 64 61
120 126 122 117 111 112 121 132 141 152 141 139 139 130 126 127 143 151 152 147 137 133 129 122 113 97 77 72 81 82 92 96 125 190 202 256 283 81 83 81 75 73 67
135 144 129 125 115 118 121 126 125 144 153 136 129 131 123 126 131 133 147 155 138 144 147 139 114 89 72 44 52 80 110 96 8 234 231 255 255 197 132 112 97 87 81
148 141 135 132 136 132 126 113 108 92 116 122 125 135 134 143 150 151 164 165 167 164 174 219 271 340 34 15 353 32 57 353 304 263 234 248 249 250 213 209 200 162 124
157 144 139 125 122 133 136 132 123 122 124 120 136 145 148 140 151 149 153 170 172 204 172 322 337 342 320 332 339 331 310 315 281 274 264 249 248 253 250 227 231 225 217
167 164 154 146 141 133 138 146 139 142 145 154 154 159 155 160 179 180 180 194 197 201 216 221 263 270 284 281 273 299 295 277 266 270 270 270 259 253 260 253 241 235 238
176 170 170 162 150 133 129 159 147 156 159 171 168 179 171 176 187 185 198 192 204 193 209 220 219 243 264 278 273 256 266 267 262 257 263 269 272 259 256 261 257 249 242
160 163 175 195 159 141 145 158 193 160 168 174 185 199 196 194 198 202 199 205 209 199 208 203 208 219 243 254 277 267 265 267 262 259 257 271 261 255 258 252 254 259 255
180 193 207 192 164 153 148 170 172 179 182 193 192 197 205 202 207 212 212 211 213 201 211 218 227 227 240 243 257 258 258 260 260 265 265 259 272 249 249 257 254 256 263
146 191 210 198 143 148 135 148 189 177 188 199 207 187 202 209 198 202 209 224 214 202 193 202 210 227 231 222 237 248 241 245 250 243 234 241 262 272 259 249 251 257 261
182 184 196 184 129 131 124 203 218 208 189 204 194 187 205 197 198 201 209 216 197 194 201 193 209 198 211 226 232 245 228 226 235 247 264 270 280 277 274 270 252 254 258
160 170 162 162 127 210 172 184 220 234 183 222 219 196 199 204 194 192 210 208 189 190 208 199 210 215 228 232 241 271 273 269 260 254 282 314 294 281 269 263 245 247 235
152 173 181 163 175 167 219 220 230 225 144 194 214 230 208 201 195 192 202 204 179 196 208 193 196 216 237 220 242 313 291 257 272 299 305 312 321 313 286 294 274 286 241
173 192 189 200 187 194 211 205 185 154 193 176 234 220 228 224 193 190 202 207 190 201 204 202 183 217 226 202 200 7 313 318 337 222 104 42 1 334 10 70 116 94 76
181 191 198 197 189 211 211 164 101 107 352 321 342 262 339 296 298 294 255 234 190 192 213 215 206 216 223 102 303 198 305 261 335 299 164 60 47 32 30 76 90 106 105
216 182 205 198 207 202 208 199 202 215 217 229 198 142 148 150 103 70 15 265 346 260 25 340 13 331 261 230 282 2 3 50 284 318 336 208 2 19 15 35 103 117 130
273 225 207 198 220 186 192 194 188 198 209 157 209 168 194 151 156 163 126 177 162 142 134 184 159 216 324 313 228 112 79 241 232 237 288 314 11 41 35 13 116 100 83
65 198 210 225 249 207 201 216 207 214 197 180 175 164 151 100 331 105 142 136 130 175 199 205 148 147 143 110 72 219 211 208 213 192 243 278 263 272 11 36 105 121 121